contact:dominique.lefevre@mio.osupytheas.fr, maurice.libes@osupytheas.fr, didier.mallarino@osupytheas.fr
Project:EMSO http://www.emso-fr.org/EMSO-France
Depth: 2436.0 m
Title:EMSO Ligure Ouest : Data MII capteur CSTAR
DateTime,Latitude,Longitude,Instrument_Serial,Reference_Counts,Signal_Counts,Corrected_Signal_raw_counts,Calculated_Beam_c_inverse_meters,Internal_thermistor_counts
DateTime,Latitude,Longitude,Instrument_Serial,Reference_Counts,Signal_Counts,Corrected_Signal_raw_counts,Calculated_Beam_c_inverse_meters,Internal_thermistor_counts
2020-03-17T00:02:54,42.805,6.029,CST-1368DR,6612,9271,15215,0.104,551
2020-03-17T00:05:55,42.805,6.029,CST-1368DR,6612,9272,15217,0.104,551
2020-03-17T00:08:57,42.805,6.029,CST-1368DR,6612,9271,15215,0.104,551
2020-03-17T00:11:59,42.805,6.029,CST-1368DR,6612,9272,15217,0.104,551
2020-03-17T00:15:01,42.805,6.029,CST-1368DR,6612,9272,15217,0.104,551
2020-03-17T00:18:02,42.805,6.029,CST-1368DR,6612,9271,15215,0.104,551
2020-03-17T00:21:04,42.805,6.029,CST-1368DR,6611,9267,15211,0.105,551
2020-03-17T00:24:06,42.805,6.029,CST-1368DR,6612,9271,15215,0.104,551
2020-03-17T00:27:07,42.805,6.029,CST-1368DR,6612,9270,15214,0.104,551
2020-03-17T00:30:09,42.805,6.029,CST-1368DR,6611,9271,15217,0.104,551
2020-03-17T00:33:11,42.805,6.029,CST-1368DR,6611,9270,15216,0.104,551
2020-03-17T00:36:12,42.805,6.029,CST-1368DR,6611,9270,15216,0.104,551
2020-03-17T00:39:14,42.805,6.029,CST-1368DR,6611,9267,15210,0.105,551
2020-03-17T00:42:16,42.805,6.029,CST-1368DR,6611,9271,15217,0.104,551
2020-03-17T00:45:17,42.805,6.029,CST-1368DR,6611,9270,15215,0.104,551
2020-03-17T00:48:19,42.805,6.029,CST-1368DR,6611,9268,15213,0.105,551
2020-03-17T00:51:21,42.805,6.029,CST-1368DR,6611,9272,15218,0.103,551
2020-03-17T00:54:22,42.805,6.029,CST-1368DR,6611,9271,15217,0.104,551
2020-03-17T00:57:24,42.805,6.029,CST-1368DR,6611,9270,15216,0.104,551
2020-03-17T01:00:26,42.805,6.029,CST-1368DR,6611,9270,15216,0.104,551
2020-03-17T01:03:28,42.805,6.029,CST-1368DR,6611,9270,15216,0.104,551
2020-03-17T01:06:29,42.805,6.029,CST-1368DR,6611,9271,15217,0.104,551
2020-03-17T01:09:31,42.805,6.029,CST-1368DR,6611,9270,15216,0.104,550
2020-03-17T01:12:33,42.805,6.029,CST-1368DR,6611,9270,15216,0.104,551
2020-03-17T01:15:34,42.805,6.029,CST-1368DR,6611,9270,15215,0.104,551
2020-03-17T01:18:36,42.805,6.029,CST-1368DR,6611,9269,15215,0.104,551
2020-03-17T01:21:38,42.805,6.029,CST-1368DR,6611,9270,15216,0.104,551
2020-03-17T01:24:40,42.805,6.029,CST-1368DR,6611,9270,15215,0.104,551
2020-03-17T01:27:41,42.805,6.029,CST-1368DR,6611,9270,15215,0.104,551
2020-03-17T01:30:43,42.805,6.029,CST-1368DR,6611,9270,15216,0.104,551
2020-03-17T01:33:45,42.805,6.029,CST-1368DR,6611,9269,15214,0.104,551
2020-03-17T01:36:46,42.805,6.029,CST-1368DR,6611,9270,15215,0.104,551
2020-03-17T01:39:48,42.805,6.029,CST-1368DR,6611,9270,15215,0.104,551
2020-03-17T01:42:50,42.805,6.029,CST-1368DR,6611,9270,15216,0.104,551
2020-03-17T01:45:52,42.805,6.029,CST-1368DR,6611,9270,15215,0.104,551
2020-03-17T01:48:53,42.805,6.029,CST-1368DR,6611,9269,15215,0.104,551
2020-03-17T01:51:55,42.805,6.029,CST-1368DR,6611,9270,15215,0.104,551
2020-03-17T01:54:57,42.805,6.029,CST-1368DR,6611,9269,15213,0.105,551
2020-03-17T01:57:58,42.805,6.029,CST-1368DR,6611,9270,15216,0.104,551
2020-03-17T02:01:00,42.805,6.029,CST-1368DR,6611,9269,15214,0.104,550
2020-03-17T02:04:02,42.805,6.029,CST-1368DR,6611,9270,15215,0.104,551
2020-03-17T02:07:03,42.805,6.029,CST-1368DR,6611,9269,15215,0.104,551
2020-03-17T02:10:05,42.805,6.029,CST-1368DR,6611,9269,15213,0.105,551
2020-03-17T02:13:07,42.805,6.029,CST-1368DR,6611,9270,15216,0.104,550
2020-03-17T02:16:09,42.805,6.029,CST-1368DR,6611,9270,15215,0.104,551
2020-03-17T02:19:10,42.805,6.029,CST-1368DR,6611,9268,15212,0.105,551
2020-03-17T02:22:12,42.805,6.029,CST-1368DR,6611,9269,15213,0.105,551
2020-03-17T02:25:14,42.805,6.029,CST-1368DR,6611,9268,15213,0.105,551
2020-03-17T02:28:16,42.805,6.029,CST-1368DR,6611,9271,15217,0.104,551
2020-03-17T02:31:18,42.805,6.029,CST-1368DR,6611,9269,15214,0.104,551
2020-03-17T02:34:19,42.805,6.029,CST-1368DR,6611,9269,15215,0.104,551
2020-03-17T02:37:21,42.805,6.029,CST-1368DR,6611,9270,15216,0.104,551
2020-03-17T02:40:23,42.805,6.029,CST-1368DR,6611,9270,15216,0.104,551
2020-03-17T02:43:24,42.805,6.029,CST-1368DR,6611,9270,15215,0.104,551
2020-03-17T02:46:26,42.805,6.029,CST-1368DR,6611,9270,15215,0.104,551
2020-03-17T02:49:28,42.805,6.029,CST-1368DR,6611,9269,15214,0.104,551
2020-03-17T02:52:29,42.805,6.029,CST-1368DR,6611,9270,15215,0.104,551
2020-03-17T02:55:31,42.805,6.029,CST-1368DR,6611,9267,15211,0.105,551
2020-03-17T02:58:33,42.805,6.029,CST-1368DR,6611,9269,15215,0.104,551
2020-03-17T03:01:34,42.805,6.029,CST-1368DR,6611,9270,15216,0.104,551
2020-03-17T03:04:36,42.805,6.029,CST-1368DR,6611,9270,15216,0.104,551
2020-03-17T03:07:38,42.805,6.029,CST-1368DR,6611,9269,15215,0.104,551
2020-03-17T03:10:40,42.805,6.029,CST-1368DR,6611,9269,15214,0.104,551
2020-03-17T03:13:41,42.805,6.029,CST-1368DR,6611,9269,15215,0.104,551
2020-03-17T03:16:43,42.805,6.029,CST-1368DR,6611,9270,15215,0.104,551
2020-03-17T03:19:45,42.805,6.029,CST-1368DR,6611,9270,15215,0.104,551
2020-03-17T03:22:46,42.805,6.029,CST-1368DR,6611,9270,15216,0.104,551
2020-03-17T03:25:48,42.805,6.029,CST-1368DR,6611,9269,15213,0.105,551
2020-03-17T03:28:50,42.805,6.029,CST-1368DR,6610,9269,15217,0.104,551
2020-03-17T03:31:51,42.805,6.029,CST-1368DR,6610,9270,15217,0.104,551
2020-03-17T03:34:53,42.805,6.029,CST-1368DR,6611,9270,15216,0.104,551
2020-03-17T03:37:55,42.805,6.029,CST-1368DR,6610,9270,15218,0.103,551
2020-03-17T03:40:56,42.805,6.029,CST-1368DR,6610,9269,15216,0.104,551
2020-03-17T03:43:58,42.805,6.029,CST-1368DR,6611,9269,15213,0.105,551
2020-03-17T03:47:00,42.805,6.029,CST-1368DR,6610,9269,15216,0.104,551
2020-03-17T03:50:01,42.805,6.029,CST-1368DR,6610,9269,15216,0.104,551
2020-03-17T03:53:03,42.805,6.029,CST-1368DR,6610,9269,15216,0.104,551
2020-03-17T03:56:05,42.805,6.029,CST-1368DR,6611,9269,15214,0.104,551
2020-03-17T03:59:07,42.805,6.029,CST-1368DR,6610,9269,15216,0.104,551
2020-03-17T04:02:08,42.805,6.029,CST-1368DR,6610,9270,15217,0.104,551
2020-03-17T04:05:10,42.805,6.029,CST-1368DR,6610,9269,15216,0.104,551
2020-03-17T04:08:12,42.805,6.029,CST-1368DR,6610,9265,15209,0.106,551
2020-03-17T04:11:14,42.805,6.029,CST-1368DR,6610,9269,15216,0.104,551
2020-03-17T04:14:15,42.805,6.029,CST-1368DR,6610,9268,15215,0.104,551
2020-03-17T04:17:17,42.805,6.029,CST-1368DR,6610,9269,15216,0.104,551
2020-03-17T04:20:19,42.805,6.029,CST-1368DR,6610,9268,15214,0.104,551
2020-03-17T04:23:20,42.805,6.029,CST-1368DR,6610,9268,15215,0.104,551
2020-03-17T04:26:22,42.805,6.029,CST-1368DR,6610,9269,15216,0.104,551
2020-03-17T04:29:24,42.805,6.029,CST-1368DR,6610,9269,15216,0.104,551
2020-03-17T04:32:26,42.805,6.029,CST-1368DR,6610,9270,15217,0.104,551
2020-03-17T04:35:27,42.805,6.029,CST-1368DR,6610,9269,15216,0.104,551
2020-03-17T04:38:29,42.805,6.029,CST-1368DR,6610,9269,15216,0.104,551
2020-03-17T04:41:31,42.805,6.029,CST-1368DR,6610,9268,15214,0.104,551
2020-03-17T04:44:32,42.805,6.029,CST-1368DR,6610,9269,15217,0.104,551
2020-03-17T04:47:34,42.805,6.029,CST-1368DR,6610,9268,15215,0.104,551
2020-03-17T04:50:36,42.805,6.029,CST-1368DR,6610,9270,15217,0.104,551
2020-03-17T04:53:37,42.805,6.029,CST-1368DR,6610,9268,15215,0.104,551
2020-03-17T04:56:39,42.805,6.029,CST-1368DR,6610,9270,15217,0.104,551
2020-03-17T04:59:41,42.805,6.029,CST-1368DR,6610,9270,15217,0.104,551
2020-03-17T05:02:42,42.805,6.029,CST-1368DR,6610,9268,15215,0.104,551
2020-03-17T05:05:44,42.805,6.029,CST-1368DR,6610,9269,15217,0.104,551
2020-03-17T05:08:46,42.805,6.029,CST-1368DR,6610,9269,15217,0.104,551
2020-03-17T05:11:47,42.805,6.029,CST-1368DR,6610,9269,15216,0.104,550
2020-03-17T05:14:49,42.805,6.029,CST-1368DR,6610,9269,15216,0.104,551
2020-03-17T05:17:51,42.805,6.029,CST-1368DR,6610,9269,15216,0.104,551
2020-03-17T05:20:53,42.805,6.029,CST-1368DR,6610,9269,15216,0.104,551
2020-03-17T05:23:54,42.805,6.029,CST-1368DR,6610,9269,15216,0.104,551
2020-03-17T05:26:56,42.805,6.029,CST-1368DR,6610,9269,15216,0.104,551
2020-03-17T05:29:58,42.805,6.029,CST-1368DR,6610,9269,15216,0.104,551
2020-03-17T05:32:59,42.805,6.029,CST-1368DR,6610,9269,15216,0.104,551
2020-03-17T05:36:01,42.805,6.029,CST-1368DR,6610,9268,15215,0.104,551
2020-03-17T05:39:03,42.805,6.029,CST-1368DR,6610,9268,15214,0.104,551
2020-03-17T05:42:04,42.805,6.029,CST-1368DR,6610,9268,15214,0.104,551
2020-03-17T05:45:06,42.805,6.029,CST-1368DR,6610,9268,15215,0.104,551
2020-03-17T05:48:08,42.805,6.029,CST-1368DR,6610,9268,15215,0.104,551
2020-03-17T05:51:10,42.805,6.029,CST-1368DR,6610,9268,15215,0.104,551
2020-03-17T05:54:11,42.805,6.029,CST-1368DR,6610,9268,15215,0.104,551
2020-03-17T05:57:13,42.805,6.029,CST-1368DR,6610,9268,15214,0.104,551
2020-03-17T06:00:15,42.805,6.029,CST-1368DR,6610,9268,15214,0.104,551
2020-03-17T06:03:16,42.805,6.029,CST-1368DR,6610,9268,15215,0.104,551
2020-03-17T06:06:18,42.805,6.029,CST-1368DR,6610,9265,15210,0.105,551
2020-03-17T06:09:20,42.805,6.029,CST-1368DR,6610,9269,15216,0.104,551
2020-03-17T06:12:22,42.805,6.029,CST-1368DR,6610,9269,15217,0.104,551
2020-03-17T06:15:23,42.805,6.029,CST-1368DR,6610,9268,15214,0.104,550
2020-03-17T06:18:25,42.805,6.029,CST-1368DR,6610,9265,15209,0.106,551
2020-03-17T06:21:27,42.805,6.029,CST-1368DR,6610,9268,15215,0.104,551
2020-03-17T06:24:28,42.805,6.029,CST-1368DR,6610,9267,15214,0.104,551
2020-03-17T06:27:30,42.805,6.029,CST-1368DR,6610,9268,15214,0.104,551
2020-03-17T06:30:32,42.805,6.029,CST-1368DR,6610,9268,15214,0.104,551
2020-03-17T06:33:34,42.805,6.029,CST-1368DR,6610,9268,15214,0.104,551
2020-03-17T06:36:35,42.805,6.029,CST-1368DR,6610,9267,15214,0.104,551
2020-03-17T06:39:37,42.805,6.029,CST-1368DR,6610,9268,15215,0.104,551
2020-03-17T06:42:39,42.805,6.029,CST-1368DR,6610,9268,15214,0.104,551
2020-03-17T06:45:41,42.805,6.029,CST-1368DR,6610,9268,15215,0.104,551
2020-03-17T06:48:42,42.805,6.029,CST-1368DR,6610,9268,15215,0.104,550
2020-03-17T06:51:44,42.805,6.029,CST-1368DR,6610,9264,15207,0.106,551
2020-03-17T06:54:46,42.805,6.029,CST-1368DR,6610,9268,15215,0.104,551
2020-03-17T06:57:47,42.805,6.029,CST-1368DR,6610,9269,15216,0.104,551
2020-03-17T07:00:49,42.805,6.029,CST-1368DR,6610,9268,15214,0.104,551
2020-03-17T07:03:51,42.805,6.029,CST-1368DR,6610,9268,15215,0.104,551
2020-03-17T07:06:52,42.805,6.029,CST-1368DR,6610,9268,15215,0.104,551
2020-03-17T07:09:54,42.805,6.029,CST-1368DR,6609,9269,15218,0.103,551
2020-03-17T07:12:56,42.805,6.029,CST-1368DR,6610,9268,15214,0.104,551
2020-03-17T07:15:57,42.805,6.029,CST-1368DR,6609,9268,15217,0.104,551
2020-03-17T07:18:59,42.805,6.029,CST-1368DR,6609,9265,15212,0.105,551
2020-03-17T07:22:01,42.805,6.029,CST-1368DR,6609,9268,15216,0.104,551
2020-03-17T07:25:03,42.805,6.029,CST-1368DR,6610,9269,15216,0.104,551
2020-03-17T07:28:04,42.805,6.029,CST-1368DR,6609,9269,15219,0.103,551
2020-03-17T07:31:06,42.805,6.029,CST-1368DR,6609,9268,15217,0.104,551
2020-03-17T07:34:08,42.805,6.029,CST-1368DR,6610,9269,15216,0.104,551
2020-03-17T07:37:09,42.805,6.029,CST-1368DR,6609,9269,15218,0.103,551
2020-03-17T07:40:11,42.805,6.029,CST-1368DR,6609,9267,15216,0.104,551
2020-03-17T07:43:13,42.805,6.029,CST-1368DR,6609,9267,15215,0.104,551
2020-03-17T07:46:14,42.805,6.029,CST-1368DR,6609,9262,15207,0.106,551
2020-03-17T07:49:16,42.805,6.029,CST-1368DR,6609,9268,15217,0.104,551
2020-03-17T07:52:18,42.805,6.029,CST-1368DR,6609,9269,15218,0.103,551
2020-03-17T07:55:20,42.805,6.029,CST-1368DR,6609,9269,15218,0.103,551
2020-03-17T07:58:21,42.805,6.029,CST-1368DR,6609,9267,15215,0.104,551
2020-03-17T08:01:23,42.805,6.029,CST-1368DR,6609,9268,15217,0.104,551
2020-03-17T08:04:25,42.805,6.029,CST-1368DR,6609,9269,15219,0.103,550
2020-03-17T08:07:27,42.805,6.029,CST-1368DR,6609,9268,15217,0.104,551
2020-03-17T08:10:28,42.805,6.029,CST-1368DR,6609,9268,15217,0.104,551
2020-03-17T08:13:30,42.805,6.029,CST-1368DR,6609,9269,15218,0.103,551
2020-03-17T08:16:32,42.805,6.029,CST-1368DR,6609,9269,15219,0.103,551
2020-03-17T08:19:33,42.805,6.029,CST-1368DR,6609,9269,15218,0.103,551
2020-03-17T08:22:35,42.805,6.029,CST-1368DR,6609,9269,15218,0.103,551
2020-03-17T08:25:37,42.805,6.029,CST-1368DR,6609,9269,15218,0.103,551
2020-03-17T08:28:39,42.805,6.029,CST-1368DR,6609,9268,15217,0.104,551
2020-03-17T08:31:40,42.805,6.029,CST-1368DR,6609,9268,15217,0.104,551
2020-03-17T08:34:42,42.805,6.029,CST-1368DR,6609,9268,15216,0.104,551
2020-03-17T08:37:44,42.805,6.029,CST-1368DR,6609,9268,15217,0.104,551
2020-03-17T08:40:45,42.805,6.029,CST-1368DR,6609,9268,15216,0.104,551
2020-03-17T08:43:47,42.805,6.029,CST-1368DR,6609,9269,15218,0.103,551
2020-03-17T08:46:49,42.805,6.029,CST-1368DR,6609,9264,15210,0.105,551
2020-03-17T08:49:50,42.805,6.029,CST-1368DR,6609,9269,15218,0.103,551
2020-03-17T08:52:52,42.805,6.029,CST-1368DR,6609,9268,15217,0.104,551
2020-03-17T08:55:54,42.805,6.029,CST-1368DR,6609,9268,15217,0.104,551
2020-03-17T08:58:56,42.805,6.029,CST-1368DR,6609,9266,15213,0.105,551
2020-03-17T09:01:58,42.805,6.029,CST-1368DR,6609,9268,15216,0.104,551
2020-03-17T09:04:59,42.805,6.029,CST-1368DR,6609,9268,15217,0.104,551
2020-03-17T09:08:01,42.805,6.029,CST-1368DR,6609,9268,15216,0.104,551
2020-03-17T09:11:03,42.805,6.029,CST-1368DR,6609,9266,15214,0.104,551
2020-03-17T09:14:04,42.805,6.029,CST-1368DR,6609,9268,15216,0.104,551
2020-03-17T09:17:06,42.805,6.029,CST-1368DR,6609,9268,15216,0.104,551
2020-03-17T09:20:08,42.805,6.029,CST-1368DR,6609,9265,15212,0.105,551
2020-03-17T09:23:10,42.805,6.029,CST-1368DR,6609,9268,15216,0.104,551
2020-03-17T09:26:11,42.805,6.029,CST-1368DR,6609,9268,15217,0.104,551
2020-03-17T09:29:13,42.805,6.029,CST-1368DR,6609,9266,15214,0.104,551
2020-03-17T09:32:15,42.805,6.029,CST-1368DR,6609,9268,15216,0.104,551
2020-03-17T09:35:16,42.805,6.029,CST-1368DR,6609,9266,15214,0.104,551
2020-03-17T09:38:18,42.805,6.029,CST-1368DR,6609,9268,15217,0.104,551
2020-03-17T09:41:20,42.805,6.029,CST-1368DR,6609,9267,15214,0.104,551
2020-03-17T09:44:22,42.805,6.029,CST-1368DR,6609,9267,15214,0.104,551
2020-03-17T09:47:23,42.805,6.029,CST-1368DR,6609,9268,15217,0.104,551
2020-03-17T09:50:25,42.805,6.029,CST-1368DR,6609,9266,15213,0.105,551
2020-03-17T09:53:27,42.805,6.029,CST-1368DR,6609,9267,15215,0.104,551
2020-03-17T09:56:28,42.805,6.029,CST-1368DR,6609,9268,15216,0.104,551
2020-03-17T09:59:30,42.805,6.029,CST-1368DR,6609,9265,15212,0.105,551
2020-03-17T10:02:32,42.805,6.029,CST-1368DR,6609,9267,15216,0.104,551
2020-03-17T10:05:33,42.805,6.029,CST-1368DR,6609,9267,15215,0.104,551
2020-03-17T10:08:35,42.805,6.029,CST-1368DR,6609,9268,15216,0.104,551
2020-03-17T10:11:37,42.805,6.029,CST-1368DR,6609,9268,15216,0.104,551
2020-03-17T10:14:38,42.805,6.029,CST-1368DR,6609,9268,15216,0.104,551
2020-03-17T10:17:40,42.805,6.029,CST-1368DR,6609,9267,15214,0.104,551
2020-03-17T10:20:42,42.805,6.029,CST-1368DR,6609,9268,15216,0.104,551
2020-03-17T10:23:43,42.805,6.029,CST-1368DR,6609,9268,15217,0.104,551
2020-03-17T10:26:45,42.805,6.029,CST-1368DR,6609,9268,15217,0.104,551
2020-03-17T10:29:47,42.805,6.029,CST-1368DR,6609,9268,15216,0.104,551
2020-03-17T10:32:48,42.805,6.029,CST-1368DR,6609,9268,15216,0.104,551
2020-03-17T10:35:50,42.805,6.029,CST-1368DR,6609,9268,15217,0.104,551
2020-03-17T10:38:52,42.805,6.029,CST-1368DR,6609,9268,15216,0.104,551
2020-03-17T10:41:54,42.805,6.029,CST-1368DR,6609,9267,15216,0.104,551
2020-03-17T10:44:55,42.805,6.029,CST-1368DR,6609,9268,15216,0.104,551
2020-03-17T10:47:57,42.805,6.029,CST-1368DR,6609,9264,15210,0.105,551
2020-03-17T10:50:59,42.805,6.029,CST-1368DR,6609,9267,15215,0.104,551
2020-03-17T10:54:00,42.805,6.029,CST-1368DR,6609,9268,15216,0.104,550
2020-03-17T10:57:02,42.805,6.029,CST-1368DR,6609,9267,15216,0.104,551
2020-03-17T11:00:04,42.805,6.029,CST-1368DR,6609,9268,15216,0.104,551
2020-03-17T11:03:05,42.805,6.029,CST-1368DR,6609,9266,15214,0.104,551
2020-03-17T11:06:07,42.805,6.029,CST-1368DR,6609,9267,15215,0.104,551
2020-03-17T11:09:09,42.805,6.029,CST-1368DR,6609,9267,15214,0.104,551
2020-03-17T11:12:11,42.805,6.029,CST-1368DR,6609,9267,15216,0.104,551
2020-03-17T11:15:12,42.805,6.029,CST-1368DR,6609,9266,15214,0.104,551
2020-03-17T11:18:14,42.805,6.029,CST-1368DR,6609,9268,15216,0.104,551
2020-03-17T11:21:16,42.805,6.029,CST-1368DR,6609,9268,15216,0.104,551
2020-03-17T11:24:17,42.805,6.029,CST-1368DR,6609,9268,15216,0.104,551
2020-03-17T11:27:19,42.805,6.029,CST-1368DR,6609,9266,15213,0.105,551
2020-03-17T11:30:21,42.805,6.029,CST-1368DR,6609,9267,15215,0.104,551
2020-03-17T11:33:23,42.805,6.029,CST-1368DR,6609,9268,15216,0.104,551
2020-03-17T11:36:25,42.805,6.029,CST-1368DR,6609,9267,15216,0.104,551
2020-03-17T11:39:26,42.805,6.029,CST-1368DR,6609,9268,15216,0.104,551
2020-03-17T11:42:28,42.805,6.029,CST-1368DR,6609,9267,15214,0.104,551
2020-03-17T11:45:30,42.805,6.029,CST-1368DR,6609,9266,15214,0.104,551
2020-03-17T11:48:32,42.805,6.029,CST-1368DR,6609,9268,15216,0.104,551
2020-03-17T11:51:33,42.805,6.029,CST-1368DR,6609,9266,15214,0.104,551
2020-03-17T11:54:35,42.805,6.029,CST-1368DR,6609,9267,15215,0.104,551
2020-03-17T11:57:37,42.805,6.029,CST-1368DR,6609,9266,15214,0.104,550
2020-03-17T12:00:38,42.805,6.029,CST-1368DR,6609,9268,15216,0.104,551
2020-03-17T12:03:40,42.805,6.029,CST-1368DR,6609,9267,15215,0.104,551
2020-03-17T12:06:42,42.805,6.029,CST-1368DR,6609,9267,15216,0.104,551
2020-03-17T12:09:44,42.805,6.029,CST-1368DR,6608,9264,15212,0.105,551
2020-03-17T12:12:46,42.805,6.029,CST-1368DR,6609,9267,15214,0.104,550
2020-03-17T12:15:47,42.805,6.029,CST-1368DR,6609,9266,15214,0.104,551
2020-03-17T12:18:49,42.805,6.029,CST-1368DR,6609,9265,15212,0.105,551
2020-03-17T12:21:51,42.805,6.029,CST-1368DR,6609,9267,15216,0.104,551
2020-03-17T12:24:52,42.805,6.029,CST-1368DR,6609,9267,15216,0.104,551
2020-03-17T12:27:54,42.805,6.029,CST-1368DR,6608,9268,15218,0.103,551
2020-03-17T12:30:56,42.805,6.029,CST-1368DR,6609,9267,15214,0.104,551
2020-03-17T12:33:57,42.805,6.029,CST-1368DR,6608,9266,15216,0.104,551
2020-03-17T12:36:59,42.805,6.029,CST-1368DR,6608,9268,15218,0.103,551
2020-03-17T12:40:01,42.805,6.029,CST-1368DR,6609,9266,15214,0.104,550
2020-03-17T12:43:02,42.805,6.029,CST-1368DR,6609,9267,15214,0.104,551
2020-03-17T12:46:04,42.805,6.029,CST-1368DR,6609,9266,15214,0.104,551
2020-03-17T12:49:06,42.805,6.029,CST-1368DR,6609,9267,15216,0.104,551
2020-03-17T12:52:08,42.805,6.029,CST-1368DR,6609,9267,15214,0.104,550
2020-03-17T12:55:09,42.805,6.029,CST-1368DR,6609,9267,15215,0.104,551
2020-03-17T12:58:11,42.805,6.029,CST-1368DR,6608,9268,15218,0.103,551
2020-03-17T13:01:13,42.805,6.029,CST-1368DR,6609,9266,15214,0.104,551
2020-03-17T13:04:15,42.805,6.029,CST-1368DR,6608,9267,15217,0.104,551
2020-03-17T13:07:16,42.805,6.029,CST-1368DR,6608,9268,15218,0.103,551
2020-03-17T13:10:18,42.805,6.029,CST-1368DR,6608,9266,15215,0.104,551
2020-03-17T13:13:20,42.805,6.029,CST-1368DR,6609,9266,15214,0.104,551
2020-03-17T13:16:21,42.805,6.029,CST-1368DR,6608,9266,15215,0.104,551
2020-03-17T13:19:23,42.805,6.029,CST-1368DR,6608,9266,15216,0.104,550
2020-03-17T13:22:25,42.805,6.029,CST-1368DR,6608,9267,15217,0.104,551
2020-03-17T13:25:26,42.805,6.029,CST-1368DR,6608,9268,15219,0.103,551
2020-03-17T13:28:28,42.805,6.029,CST-1368DR,6608,9265,15215,0.104,551
2020-03-17T13:31:30,42.805,6.029,CST-1368DR,6608,9267,15218,0.103,551
2020-03-17T13:34:32,42.805,6.029,CST-1368DR,6608,9266,15215,0.104,551
2020-03-17T13:37:33,42.805,6.029,CST-1368DR,6608,9267,15218,0.103,551
2020-03-17T13:40:35,42.805,6.029,CST-1368DR,6608,9266,15215,0.104,551
2020-03-17T13:43:37,42.805,6.029,CST-1368DR,6608,9266,15216,0.104,550
2020-03-17T13:46:38,42.805,6.029,CST-1368DR,6608,9265,15215,0.104,551
2020-03-17T13:49:40,42.805,6.029,CST-1368DR,6608,9266,15216,0.104,551
2020-03-17T13:52:42,42.805,6.029,CST-1368DR,6608,9266,15216,0.104,551
2020-03-17T13:55:43,42.805,6.029,CST-1368DR,6608,9267,15217,0.104,551
2020-03-17T13:58:45,42.805,6.029,CST-1368DR,6608,9268,15219,0.103,551
2020-03-17T14:01:47,42.805,6.029,CST-1368DR,6608,9267,15218,0.103,551
2020-03-17T14:04:48,42.805,6.029,CST-1368DR,6608,9268,15218,0.103,551
2020-03-17T14:07:50,42.805,6.029,CST-1368DR,6608,9267,15217,0.104,551
2020-03-17T14:10:52,42.805,6.029,CST-1368DR,6608,9267,15218,0.103,551
2020-03-17T14:13:53,42.805,6.029,CST-1368DR,6608,9265,15214,0.104,551
2020-03-17T14:16:55,42.805,6.029,CST-1368DR,6608,9266,15216,0.104,551
2020-03-17T14:19:57,42.805,6.029,CST-1368DR,6608,9267,15217,0.104,551
2020-03-17T14:22:58,42.805,6.029,CST-1368DR,6608,9267,15217,0.104,551
2020-03-17T14:26:00,42.805,6.029,CST-1368DR,6608,9265,15215,0.104,551
2020-03-17T14:29:02,42.805,6.029,CST-1368DR,6608,9267,15217,0.104,551
2020-03-17T14:32:03,42.805,6.029,CST-1368DR,6608,9266,15216,0.104,551
2020-03-17T14:35:05,42.805,6.029,CST-1368DR,6608,9267,15217,0.104,551
2020-03-17T14:38:07,42.805,6.029,CST-1368DR,6608,9266,15216,0.104,551
2020-03-17T14:41:08,42.805,6.029,CST-1368DR,6608,9267,15217,0.104,551
2020-03-17T14:44:10,42.805,6.029,CST-1368DR,6608,9267,15218,0.103,551
2020-03-17T14:47:12,42.805,6.029,CST-1368DR,6608,9264,15212,0.105,551
2020-03-17T14:50:13,42.805,6.029,CST-1368DR,6608,9266,15216,0.104,551
2020-03-17T14:53:15,42.805,6.029,CST-1368DR,6608,9266,15216,0.104,550
2020-03-17T14:56:17,42.805,6.029,CST-1368DR,6608,9267,15218,0.103,551
2020-03-17T14:59:18,42.805,6.029,CST-1368DR,6608,9267,15217,0.104,551
2020-03-17T15:02:20,42.805,6.029,CST-1368DR,6608,9266,15215,0.104,551
2020-03-17T15:05:22,42.805,6.029,CST-1368DR,6608,9266,15216,0.104,551
2020-03-17T15:08:23,42.805,6.029,CST-1368DR,6608,9266,15215,0.104,551
2020-03-17T15:11:25,42.805,6.029,CST-1368DR,6608,9266,15216,0.104,551
2020-03-17T15:14:27,42.805,6.029,CST-1368DR,6608,9266,15215,0.104,551
2020-03-17T15:17:28,42.805,6.029,CST-1368DR,6608,9266,15216,0.104,551
2020-03-17T15:20:30,42.805,6.029,CST-1368DR,6608,9266,15216,0.104,551
2020-03-17T15:23:32,42.805,6.029,CST-1368DR,6608,9266,15215,0.104,551
2020-03-17T15:26:33,42.805,6.029,CST-1368DR,6608,9266,15216,0.104,551
2020-03-17T15:29:35,42.805,6.029,CST-1368DR,6608,9267,15217,0.104,551
2020-03-17T15:32:37,42.805,6.029,CST-1368DR,6608,9266,15216,0.104,551
2020-03-17T15:35:38,42.805,6.029,CST-1368DR,6608,9266,15216,0.104,551
2020-03-17T15:38:40,42.805,6.029,CST-1368DR,6608,9265,15214,0.104,551
2020-03-17T15:41:42,42.805,6.029,CST-1368DR,6608,9266,15216,0.104,550
2020-03-17T15:44:43,42.805,6.029,CST-1368DR,6608,9266,15216,0.104,551
2020-03-17T15:47:45,42.805,6.029,CST-1368DR,6608,9266,15216,0.104,551
2020-03-17T15:50:47,42.805,6.029,CST-1368DR,6608,9267,15218,0.103,551
2020-03-17T15:53:48,42.805,6.029,CST-1368DR,6608,9267,15217,0.104,551
2020-03-17T15:56:50,42.805,6.029,CST-1368DR,6608,9266,15216,0.104,551
2020-03-17T15:59:52,42.805,6.029,CST-1368DR,6608,9266,15216,0.104,551
2020-03-17T16:02:54,42.805,6.029,CST-1368DR,6608,9267,15217,0.104,551
2020-03-17T16:05:55,42.805,6.029,CST-1368DR,6608,9265,15215,0.104,551
2020-03-17T16:08:57,42.805,6.029,CST-1368DR,6608,9266,15216,0.104,551
2020-03-17T16:11:59,42.805,6.029,CST-1368DR,6608,9266,15216,0.104,551
2020-03-17T16:15:00,42.805,6.029,CST-1368DR,6608,9266,15216,0.104,551
2020-03-17T16:18:02,42.805,6.029,CST-1368DR,6608,9266,15216,0.104,551
2020-03-17T16:21:04,42.805,6.029,CST-1368DR,6608,9266,15215,0.104,551
2020-03-17T16:24:05,42.805,6.029,CST-1368DR,6608,9266,15215,0.104,551
2020-03-17T16:27:07,42.805,6.029,CST-1368DR,6608,9266,15216,0.104,551
2020-03-17T16:30:09,42.805,6.029,CST-1368DR,6608,9264,15212,0.105,551
2020-03-17T16:33:10,42.805,6.029,CST-1368DR,6608,9267,15217,0.104,551
2020-03-17T16:36:12,42.805,6.029,CST-1368DR,6608,9266,15215,0.104,551
2020-03-17T16:39:14,42.805,6.029,CST-1368DR,6608,9265,15214,0.104,551
2020-03-17T16:42:15,42.805,6.029,CST-1368DR,6608,9266,15216,0.104,551
2020-03-17T16:45:17,42.805,6.029,CST-1368DR,6608,9266,15215,0.104,551
2020-03-17T16:48:19,42.805,6.029,CST-1368DR,6608,9266,15216,0.104,551
2020-03-17T16:51:20,42.805,6.029,CST-1368DR,6608,9264,15213,0.105,551
2020-03-17T16:54:22,42.805,6.029,CST-1368DR,6608,9267,15217,0.104,551